BEIDOU-3 G1 (43683 NORAD) Tracking and Keplerian Element Data

This shows tracking and keplerian element data for the satellite.

Feedback or suggestion? Click here.




ElementValue
Catalog43683
NameBEIDOU-3 G1
Epoch Orbit218
Epoch Day144.50674542
Epoch Year2019
RAAN269.7403
Inclination2.6334
Eccentricity0.000127
Argument of Perigee152.0222
Mean Anonmoly146.9702
Mean Motion1.00268517
Decay Rate-2.52E-06
L11 43683U 18085A 19144.50674542 -.00000252 00000-0 00000+0 0 9997
L22 43683 2.6334 269.7403 0001270 152.0222 146.9702 1.00268517 2189

Live tracking and technical data element details for BEIDOU-3 G1 (NORAD 43683). BEIDOU-3 G1 can be tracked NOW for your location showing map with azimuth and elevation plus other details from your city location.

Track the satellite on the map from your city or location and see movement details for azimuth, elevation, latitude, longitude, range, height, and movement on the map or in text.







IsCatalogInMostPopularTable: catalog: 43683, numindb: 107
Update: records affected: 1



GetName: 43683 BEIDOU-3 G1

Hit Count: updated at: Fri, 24 May 2019 21:15:08 GMT